Location: Tr�vern
(48.0333°N, 4.6000°W)
Time: 19:05:19
(UTC+00:00)

Aureole 2 - Pass Details

Date: 14 July 2020
Orbit: 366 x 900 km, 73.9° (Epoch: 12 August)

Event Time Altitude Azimuth Distance (km) Brightness Sun altitude
Exits shadow 03:24:01 11° 192° (SSW) 1,298 6.2 -9.6°
Maximum altitude 03:26:46 65° 110° (ESE) 411 4.3 -9.3°
Drops below altitude 10° 03:29:41 10° 28° (NNE) 1,377 8.3 -8.9°
Sets 03:31:42 0° 26° (NNE) 2,254 9.6 -8.7°
